Location: *
(41.0833°N, 73.4167°W)
Time: 23:42:13
(UTC+00:00)

KORONAS-FOTON - Pass Details

Date: 22 October 2019
Orbit: 507 x 532 km, 82.4° (Epoch: 14 November)

Event Time Altitude Azimuth Distance (km) Brightness Sun altitude
Rises 10:23:36 0° 205° (SSW) 2,597 7.2 -10.0°
Reaches altitude 10° 10:25:49 10° 213° (SSW) 1,717 6.2 -9.5°
Maximum altitude 10:29:19 37° 282° (WNW) 805 4.3 -8.9°
Drops below altitude 10° 10:32:52 10° 351° (N) 1,734 6.3 -8.2°
Sets 10:35:08 0° 0° (N) 2,627 7.3 -7.8°
